| time (UTC) | temp F | wind direction | speed knots | gust knots | rain 1hr in | rain 24hr in | rain mn in | humidity % | barometer mb |
| 20260505094503 | 89 | 97 | 7.0 | 15.6 | 0.00 | 0.00 | 0.00 | 67 | 1010.1 |
| 20260505093821 | 90 | 106 | 6.1 | 13.0 | 0.00 | 0.00 | 0.00 | 66 | 1010.0 |
| 20260505093102 | 89 | 88 | 6.1 | 12.2 | 0.00 | 0.00 | 0.00 | 66 | 1010.0 |
| 20260505092833 | 90 | 101 | 7.8 | 13.0 | 0.00 | 0.00 | 0.00 | 65 | 1009.9 |
| 20260505091850 | 90 | 116 | 6.1 | 13.0 | 0.00 | 0.00 | 0.00 | 65 | 1009.8 |
| 20260505091603 | 90 | 107 | 7.8 | 11.3 | 0.00 | 0.00 | 0.00 | 65 | 1009.9 |
| 20260505090839 | 90 | 124 | 7.8 | 13.0 | 0.00 | 0.00 | 0.00 | 64 | 1009.7 |
| 20260505090008 | 90 | 109 | 7.0 | 13.9 | 0.00 | 0.00 | 0.00 | 63 | 1009.8 |
| 20260505085857 | 90 | 125 | 6.1 | 11.3 | 0.00 | 0.00 | 0.00 | 63 | 1009.8 |
| 20260505084828 | 91 | 121 | 6.1 | 10.4 | 0.00 | 0.00 | 0.00 | 64 | 1009.7 |
| 20260505084602 | 90 | 120 | 6.1 | 11.3 | 0.00 | 0.00 | 0.00 | 64 | 1009.7 |
| 20260505083004 | 90 | 107 | 9.6 | 13.9 | 0.00 | 0.00 | 0.00 | 62 | 1009.7 |
| 20260505081558 | 91 | 107 | 7.0 | 15.6 | 0.00 | 0.00 | 0.00 | 61 | 1009.6 |
| 20260505081504 | 91 | 100 | 9.6 | 15.6 | 0.00 | 0.00 | 0.00 | 60 | 1009.7 |
| 20260505080540 | 92 | 94 | 7.8 | 15.6 | 0.00 | 0.00 | 0.00 | 59 | 1009.6 |
| 20260505074503 | 93 | 90 | 7.8 | 13.0 | 0.00 | 0.00 | 0.00 | 57 | 1009.4 |
| 20260505074358 | 94 | 109 | 7.0 | 12.2 | 0.00 | 0.00 | 0.00 | 56 | 1009.4 |
| 20260505073332 | 94 | 119 | 7.8 | 14.8 | 0.00 | 0.00 | 0.00 | 56 | 1009.4 |
| 20260505073003 | 94 | 110 | 8.7 | 16.5 | 0.00 | 0.00 | 0.00 | 56 | 1009.4 |
| 20260505072330 | 95 | 61 | 7.0 | 16.5 | 0.00 | 0.00 | 0.00 | 56 | 1009.3 |
| 20260505071502 | 94 | 55 | 4.3 | 17.4 | 0.00 | 0.00 | 0.00 | 55 | 1009.5 |
| 20260505071330 | 95 | 111 | 6.1 | 16.5 | 0.00 | 0.00 | 0.00 | 55 | 1009.4 |
| 20260505070347 | 95 | 65 | 5.2 | 16.5 | 0.00 | 0.00 | 0.00 | 54 | 1009.6 |
| 20260505065321 | 94 | 113 | 7.0 | 16.5 | 0.00 | 0.00 | 0.00 | 55 | 1009.6 |
| 20260505064502 | 94 | 60 | 5.2 | 17.4 | 0.00 | 0.00 | 0.00 | 55 | 1009.8 |
| 20260505064325 | 94 | 102 | 7.0 | 13.0 | 0.00 | 0.00 | 0.00 | 55 | 1009.7 |
| 20260505062251 | 94 | 58 | 7.0 | 16.5 | 0.00 | 0.00 | 0.00 | 58 | 1009.8 |
| 20260505061605 | 93 | 86 | 7.0 | 13.0 | 0.00 | 0.00 | 0.00 | 58 | 1009.9 |
| 20260505060117 | 93 | 103 | 6.1 | 18.2 | 0.00 | 0.00 | 0.00 | 59 | 1010.0 |
| 20260505060003 | 92 | 86 | 5.2 | 13.0 | 0.00 | 0.00 | 0.00 | 59 | 1010.1 |
| 20260505055121 | 92 | 105 | 7.8 | 18.2 | 0.00 | 0.00 | 0.00 | 60 | 1010.3 |
| 20260505054604 | 93 | 116 | 8.7 | 19.1 | 0.00 | 0.00 | 0.00 | 58 | 1010.5 |
| 20260505054055 | 94 | 88 | 7.0 | 15.6 | 0.00 | 0.00 | 0.00 | 57 | 1010.4 |
| 20260505053107 | 94 | 121 | 8.7 | 16.5 | 0.00 | 0.00 | 0.00 | 57 | 1010.5 |
| 20260505051602 | 93 | 148 | 9.6 | 16.5 | 0.00 | 0.00 | 0.00 | 59 | 1010.7 |
| 20260505050931 | 94 | 103 | 7.8 | 17.4 | 0.00 | 0.00 | 0.00 | 58 | 1010.6 |
| 20260505041655 | 94 | 106 | 8.7 | 16.5 | 0.00 | 0.00 | 0.00 | 56 | 1011.2 |
| 20260505041502 | 93 | 102 | 7.0 | 17.4 | 0.00 | 0.00 | 0.00 | 57 | 1011.2 |
| 20260505040625 | 94 | 142 | 8.7 | 17.4 | 0.00 | 0.00 | 0.00 | 57 | 1011.3 |
| 20260505040108 | 93 | 108 | 8.7 | 18.2 | 0.00 | 0.00 | 0.00 | 57 | 1011.4 |
| 20260505035558 | 94 | 117 | 8.7 | 16.5 | 0.00 | 0.00 | 0.00 | 55 | 1011.4 |
| 20260505034602 | 93 | 123 | 7.0 | 13.0 | 0.00 | 0.00 | 0.00 | 57 | 1011.4 |
| 20260505034507 | 93 | 162 | 7.8 | 12.2 | 0.00 | 0.00 | 0.00 | 57 | 1011.5 |
| 20260505033607 | 93 | 99 | 7.8 | 15.6 | 0.00 | 0.00 | 0.00 | 57 | 1011.6 |
| 20260505033103 | 93 | 111 | 7.0 | 16.5 | 0.00 | 0.00 | 0.00 | 58 | 1011.7 |
| 20260505032545 | 93 | 131 | 7.8 | 16.5 | 0.00 | 0.00 | 0.00 | 59 | 1011.7 |
| 20260505031603 | 92 | 105 | 9.6 | 17.4 | 0.00 | 0.00 | 0.00 | 59 | 1011.9 |
| 20260505031529 | 92 | 119 | 8.7 | 16.5 | 0.00 | 0.00 | 0.00 | 59 | 1011.8 |
| 20260505030457 | 92 | 129 | 7.8 | 15.6 | 0.00 | 0.00 | 0.00 | 59 | 1011.9 |
| 20260505030003 | 92 | 107 | 7.8 | 16.5 | 0.00 | 0.00 | 0.00 | 59 | 1012.0 |
| 20260505025501 | 92 | 122 | 7.0 | 14.8 | 0.00 | 0.00 | 0.00 | 59 | 1012.0 |
| 20260505024603 | 92 | 120 | 7.0 | 13.9 | 0.00 | 0.00 | 0.00 | 60 | 1012.1 |
| 20260505024437 | 92 | 78 | 6.1 | 16.5 | 0.00 | 0.00 | 0.00 | 62 | 1011.9 |
| 20260505023003 | 91 | 150 | 7.8 | 15.6 | 0.00 | 0.00 | 0.00 | 61 | 1012.1 |
| 20260505022234 | 91 | 151 | 7.0 | 13.0 | 0.00 | 0.00 | 0.00 | 62 | 1012.1 |
| 20260505021506 | 91 | 128 | 7.8 | 13.9 | 0.00 | 0.00 | 0.00 | 61 | 1012.3 |
| 20260505021236 | 92 | 109 | 7.0 | 13.0 | 0.00 | 0.00 | 0.00 | 60 | 1012.4 |
| 20260505020240 | 92 | 116 | 6.1 | 15.6 | 0.00 | 0.00 | 0.00 | 59 | 1012.4 |
| 20260505015259 | 91 | 86 | 7.0 | 15.6 | 0.00 | 0.00 | 0.00 | 59 | 1012.5 |
| 20260505014502 | 90 | 111 | 7.8 | 16.5 | 0.00 | 0.00 | 0.00 | 61 | 1012.6 |
| 20260505014304 | 91 | 92 | 6.1 | 14.8 | 0.00 | 0.00 | 0.00 | 62 | 1012.6 |
| 20260505013105 | 90 | 109 | 7.0 | 12.2 | 0.00 | 0.00 | 0.00 | 65 | 1012.7 |
| 20260505012204 | 90 | 105 | 4.3 | 8.7 | 0.00 | 0.00 | 0.00 | 65 | 1012.7 |
| 20260505011608 | 89 | 105 | 5.2 | 9.6 | 0.00 | 0.00 | 0.00 | 65 | 1012.7 |
| 20260505011200 | 90 | 101 | 4.3 | 8.7 | 0.00 | 0.00 | 0.00 | 65 | 1012.6 |
| 20260505010203 | 90 | 92 | 3.5 | 7.0 | 0.00 | 0.00 | 0.00 | 64 | 1012.5 |
| 20260505010003 | 89 | 92 | 4.3 | 7.8 | 0.00 | 0.00 | 0.00 | 64 | 1012.6 |
| 20260505004602 | 89 | 91 | 3.5 | 7.8 | 0.00 | 0.00 | 0.00 | 62 | 1012.7 |
| 20260505004104 | 89 | 92 | 3.5 | 9.6 | 0.00 | 0.00 | 0.00 | 63 | 1012.6 |
| 20260505003125 | 89 | 91 | 4.3 | 9.6 | 0.00 | 0.00 | 0.00 | 62 | 1012.7 |
| 20260505003003 | 88 | 101 | 4.3 | 8.7 | 0.00 | 0.00 | 0.00 | 62 | 1012.7 |
| 20260505002135 | 88 | 107 | 3.5 | 7.8 | 0.00 | 0.00 | 0.00 | 62 | 1012.7 |
| 20260505001501 | 88 | 103 | 4.3 | 8.7 | 0.00 | 0.00 | 0.00 | 63 | 1012.7 |
| 20260505001136 | 88 | 109 | 3.5 | 7.8 | 0.00 | 0.00 | 0.00 | 63 | 1012.7 |
| 20260505000201 | 88 | 108 | 3.5 | 7.8 | 0.00 | 0.00 | 0.00 | 64 | 1012.7 |
| 20260505000139 | 87 | 108 | 3.5 | 8.7 | 0.00 | 0.00 | 0.00 | 63 | 1012.7 |
| 20260504235215 | 88 | 97 | 3.5 | 6.1 | 0.00 | 0.00 | 0.00 | 64 | 1012.6 |
| 20260504234504 | 88 | 94 | 5.2 | 7.0 | 0.00 | 0.00 | 0.00 | 63 | 1012.8 |
| 20260504234213 | 88 | 92 | 2.6 | 6.1 | 0.00 | 0.00 | 0.00 | 64 | 1012.8 |
| 20260504233224 | 87 | 103 | 0.9 | 5.2 | 0.00 | 0.00 | 0.00 | 66 | 1012.7 |
| 20260504233109 | 87 | 102 | 0.9 | 6.1 | 0.00 | 0.00 | 0.00 | 65 | 1012.8 |
| 20260504232209 | 87 | 103 | 1.7 | 5.2 | 0.00 | 0.00 | 0.00 | 68 | 1012.7 |
| 20260504231603 | 86 | 103 | 2.6 | 6.1 | 0.00 | 0.00 | 0.00 | 68 | 1012.7 |
| 20260504231153 | 86 | 103 | 1.7 | 5.2 | 0.00 | 0.00 | 0.00 | 68 | 1012.6 |
| 20260504230131 | 85 | 103 | 1.7 | 5.2 | 0.00 | 0.00 | 0.00 | 70 | 1012.4 |
| 20260504230011 | 85 | 103 | 3.5 | 6.1 | 0.00 | 0.00 | 0.00 | 70 | 1012.5 |
| 20260504225150 | 85 | 103 | 2.6 | 5.2 | 0.00 | 0.00 | 0.00 | 72 | 1012.4 |
| 20260504224611 | 84 | 103 | 3.5 | 6.1 | 0.00 | 0.00 | 0.00 | 73 | 1012.4 |
| 20260504224152 | 84 | 103 | 2.6 | 5.2 | 0.00 | 0.00 | 0.00 | 74 | 1012.3 |
| 20260504223005 | 82 | 103 | 3.5 | 6.1 | 0.00 | 0.00 | 0.00 | 77 | 1012.2 |
| 20260504222052 | 82 | 103 | 1.7 | 4.3 | 0.00 | 0.00 | 0.00 | 79 | 1012.2 |
| 20260504221504 | 81 | 103 | 0.9 | 5.2 | 0.00 | 0.00 | 0.00 | 80 | 1012.1 |
| 20260504221059 | 81 | 103 | 0.9 | 3.5 | 0.00 | 0.00 | 0.00 | 80 | 1012.0 |
| 20260504220123 | 81 | 103 | 0.9 | 3.5 | 0.00 | 0.00 | 0.00 | 79 | 1012.1 |
| 20260504215119 | 81 | 103 | 0.9 | 2.6 | 0.00 | 0.00 | 0.00 | 79 | 1011.9 |
| 20260504214504 | 81 | 103 | 1.7 | 2.6 | 0.00 | 0.00 | 0.00 | 79 | 1012.0 |
| 20260504213148 | 81 | 103 | 0.9 | 2.6 | 0.00 | 0.00 | 0.00 | 78 | 1011.9 |
| 20260504212941 | 81 | 103 | 0.0 | 2.6 | 0.00 | 0.00 | 0.00 | 78 | 1012.0 |
| 20260504211949 | 81 | 103 | 0.0 | 3.5 | 0.00 | 0.00 | 0.00 | 78 | 1011.8 |
| 20260504211607 | 81 | 103 | 0.9 | 2.6 | 0.00 | 0.00 | 0.00 | 78 | 1011.8 |
| 20260504210005 | 81 | 103 | 1.7 | 4.3 | 0.00 | 0.00 | 0.00 | 78 | 1011.7 |
| 20260504205840 | 82 | 103 | 0.9 | 3.5 | 0.00 | 0.00 | 0.00 | 78 | 1011.7 |
| 20260504204853 | 82 | 103 | 0.9 | 3.5 | 0.00 | 0.00 | 0.00 | 78 | 1011.6 |
| 20260504204604 | 81 | 103 | 0.9 | 4.3 | 0.00 | 0.00 | 0.00 | 78 | 1011.7 |
| 20260504203917 | 82 | 103 | 2.6 | 4.3 | 0.00 | 0.00 | 0.00 | 78 | 1011.6 |
| 20260504203008 | 81 | 103 | 1.7 | 4.3 | 0.00 | 0.00 | 0.00 | 77 | 1011.6 |
| 20260504202849 | 82 | 103 | 0.9 | 4.3 | 0.00 | 0.00 | 0.00 | 77 | 1011.5 |
| 20260504201849 | 82 | 103 | 0.9 | 4.3 | 0.00 | 0.00 | 0.00 | 77 | 1011.5 |
| 20260504201505 | 81 | 103 | 0.9 | 4.3 | 0.00 | 0.00 | 0.00 | 77 | 1011.4 |
| 20260504200840 | 82 | 103 | 0.9 | 3.5 | 0.00 | 0.00 | 0.00 | 77 | 1011.4 |
| 20260504195857 | 82 | 103 | 0.9 | 3.5 | 0.00 | 0.00 | 0.00 | 77 | 1011.3 |
| 20260504194911 | 82 | 103 | 0.9 | 3.5 | 0.00 | 0.00 | 0.00 | 76 | 1011.4 |
| 20260504194503 | 81 | 103 | 0.9 | 4.3 | 0.00 | 0.00 | 0.00 | 76 | 1011.4 |
| 20260504193907 | 82 | 103 | 1.7 | 3.5 | 0.00 | 0.00 | 0.00 | 76 | 1011.4 |
| 20260504193112 | 82 | 103 | 1.7 | 4.3 | 0.00 | 0.00 | 0.00 | 76 | 1011.4 |
| 20260504192835 | 82 | 103 | 0.9 | 3.5 | 0.00 | 0.00 | 0.00 | 76 | 1011.4 |
| 20260504191604 | 82 | 103 | 1.7 | 4.3 | 0.00 | 0.00 | 0.00 | 76 | 1011.4 |
| 20260504190702 | 82 | 103 | 0.9 | 3.5 | 0.00 | 0.00 | 0.00 | 77 | 1011.5 |
| 20260504190004 | 82 | 103 | 0.0 | 5.2 | 0.00 | 0.00 | 0.00 | 77 | 1011.5 |
| 20260504185721 | 82 | 103 | 1.7 | 4.3 | 0.00 | 0.00 | 0.00 | 77 | 1011.5 |
| 20260504184657 | 82 | 103 | 2.6 | 5.2 | 0.00 | 0.00 | 0.00 | 76 | 1011.5 |
| 20260504184609 | 82 | 103 | 3.5 | 6.1 | 0.00 | 0.00 | 0.00 | 76 | 1011.5 |
| 20260504183633 | 82 | 103 | 2.6 | 5.2 | 0.00 | 0.00 | 0.00 | 76 | 1011.5 |
| 20260504183002 | 82 | 103 | 3.5 | 5.2 | 0.00 | 0.00 | 0.00 | 76 | 1011.7 |
| 20260504182606 | 82 | 103 | 1.7 | 4.3 | 0.00 | 0.00 | 0.00 | 76 | 1011.7 |
| 20260504181541 | 83 | 103 | 3.5 | 7.0 | 0.00 | 0.00 | 0.00 | 76 | 1011.7 |
| 20260504181502 | 82 | 103 | 3.5 | 7.0 | 0.00 | 0.00 | 0.00 | 76 | 1011.7 |
| 20260504180524 | 82 | 102 | 2.6 | 7.0 | 0.00 | 0.00 | 0.00 | 75 | 1011.7 |
| 20260504180006 | 82 | 101 | 3.5 | 5.2 | 0.00 | 0.00 | 0.00 | 75 | 1011.7 |
| 20260504175526 | 83 | 101 | 2.6 | 5.2 | 0.00 | 0.00 | 0.00 | 75 | 1011.8 |
| 20260504174617 | 82 | 101 | 2.6 | 6.1 | 0.00 | 0.00 | 0.00 | 74 | 1012.0 |
| 20260504174510 | 83 | 101 | 2.6 | 6.1 | 0.00 | 0.00 | 0.00 | 74 | 1011.9 |
| 20260504173530 | 83 | 101 | 3.5 | 6.1 | 0.00 | 0.00 | 0.00 | 73 | 1012.0 |
| 20260504173002 | 82 | 101 | 3.5 | 6.1 | 0.00 | 0.00 | 0.00 | 73 | 1012.1 |
| 20260504171503 | 82 | 101 | 3.5 | 6.1 | 0.00 | 0.00 | 0.00 | 74 | 1012.2 |
| 20260504171401 | 83 | 101 | 2.6 | 5.2 | 0.00 | 0.00 | 0.00 | 74 | 1012.2 |
| 20260504170414 | 83 | 101 | 3.5 | 7.0 | 0.00 | 0.00 | 0.00 | 73 | 1012.1 |
| 20260504170105 | 83 | 101 | 3.5 | 6.1 | 0.00 | 0.00 | 0.00 | 73 | 1012.2 |
| 20260504160105 | 83 | 115 | 6.1 | 11.3 | 0.00 | 0.00 | 0.00 | 72 | 1012.7 |
| 20260504150827 | 84 | 113 | 6.1 | 14.8 | 0.00 | 0.00 | 0.00 | 71 | 1013.1 |
| 20260504140513 | 85 | 126 | 6.1 | 14.8 | 0.00 | 0.00 | 0.00 | 68 | 1012.6 |
| 20260504140112 | 84 | 130 | 8.7 | 15.6 | 0.00 | 0.00 | 0.00 | 68 | 1012.8 |
| 20260504130222 | 85 | 125 | 7.0 | 12.2 | 0.00 | 0.00 | 0.00 | 70 | 1012.3 |
| 20260504120156 | 86 | 108 | 6.1 | 11.3 | 0.00 | 0.00 | 0.00 | 69 | 1012.1 |
| 20260504100106 | 88 | 116 | 7.0 | 13.0 | 0.00 | 0.00 | 0.00 | 63 | 1010.8 |